{"data":{"norad_id":61928,"intl_designator":"2024-207S","name":"STARLINK-32620","alt_names":[],"object_type":"PAYLOAD","status":"ACTIVE","operator":null,"country":"US","launch_date":"2024-11-11","launch_site_code":"AFETR","launch_vehicle":null,"mission":null,"orbit_class":"UNKNOWN","rcs_meters":null,"size_class":null,"mass_kg":null,"dimensions":null,"purposes":["comms"],"wikipedia_slug":null,"has_3d_model":false,"image_url":null,"decayed_at":null,"tle_current":{"epoch":"2026-05-24T21:00:30.634848Z","epoch_age_seconds":79746,"freshness":"FRESH","line1":"1 61928U 24207S   26144.87535457  .00011580  00000+0  42962-3 0  9992","line2":"2 61928  42.9948 211.4834 0001442 273.1883  86.8804 15.27582879 86372","mean_motion":15.27582879,"eccentricity":0.0001442,"inclination_deg":42.9948,"raan_deg":211.4834,"arg_perigee_deg":273.1883,"mean_anomaly_deg":86.8804,"bstar":0.00042962,"rev_number":8637,"period_min":94.266571051298,"perigee_km":482.05109349954,"apogee_km":484.02985708341,"semimajor_km":6861.1774752915,"source":"CELESTRAK","updated_at":"2026-05-25T13:38:19.484109Z"}}}